EW8956 Weather Reports


time (UTC)temp
F
wind
direction
speed
knots
gust
knots
rain 1hr
in
rain 24hr
in
rain mn
in
humidity
%
barometer
mb
20260509141554 64 135 1.7 7.8 0.00 0.00 0.00 74 1013.0
20260509140059 63 229 1.7 7.8 0.00 0.00 0.00 74 1013.3
20260509134544 62 174 0.9 6.1 0.00 0.00 0.00 74 1013.3
20260509133047 62 211 0.0 4.3 0.00 0.00 0.00 75 1013.7
20260509131540 62 0 0.9 6.1 0.00 0.00 0.00 73 1014.1
20260509130051 61 0 0.9 8.7 0.00 0.00 0.00 73 1014.3
20260509124546 60 0 0.0 3.5 0.00 0.00 0.00 74 1014.2
20260509123053 59 115 0.0 3.5 0.00 0.00 0.00 76 1014.0
20260509121545 57 0 0.0 4.3 0.00 0.00 0.00 80 1013.9
20260509120051 56 163 0.9 2.6 0.00 0.00 0.00 82 1014.0
20260509114548 54 0 0.0 3.5 0.00 0.00 0.00 86 1013.7
20260509113050 53 0 0.0 0.9 0.00 0.00 0.00 87 1013.7
20260509111551 53 0 0.0 0.9 0.00 0.00 0.00 90 1013.7
20260509110051 51 0 0.0 0.9 0.00 0.00 0.00 89 1013.7
20260509104554 50 0 0.0 0.0 0.00 0.00 0.00 87 1013.3
20260509103047 50 0 0.0 0.0 0.00 0.00 0.00 86 1013.1
20260509101555 50 0 0.0 0.0 0.00 0.00 0.00 85 1012.9
20260509100051 51 0 0.0 0.0 0.00 0.00 0.00 84 1012.9
20260509094543 51 0 0.0 0.9 0.00 0.00 0.00 86 1012.9
20260509093055 51 0 0.0 0.9 0.00 0.00 0.00 83 1012.9
20260509091548 51 0 0.0 0.9 0.00 0.00 0.00 81 1013.0
20260509090051 52 0 0.0 0.9 0.00 0.00 0.00 79 1013.2
20260509084554 53 0 0.0 0.9 0.00 0.00 0.00 77 1013.4
20260509083051 53 0 0.0 0.9 0.00 0.00 0.00 76 1013.2
20260509081546 54 0 0.0 0.9 0.00 0.00 0.00 73 1013.4
20260509080056 54 0 0.0 0.9 0.00 0.00 0.00 72 1013.4
20260509074544 55 0 0.0 0.9 0.00 0.00 0.00 70 1013.5
20260509073051 55 0 0.0 3.5 0.00 0.00 0.00 70 1013.6
20260509071545 55 0 0.0 1.7 0.00 0.00 0.00 68 1013.7
20260509070049 56 0 0.0 0.9 0.00 0.00 0.00 66 1013.8
20260509064547 58 0 0.0 1.7 0.00 0.00 0.00 63 1013.9
20260509063055 58 0 0.0 2.6 0.00 0.00 0.00 61 1013.9
20260509061558 58 0 0.0 3.5 0.00 0.00 0.00 61 1014.4
20260509060054 58 0 0.0 2.6 0.00 0.00 0.00 61 1014.5
20260509054558 58 0 0.0 1.7 0.00 0.01 0.00 61 1014.7
20260509053101 58 0 0.0 1.7 0.00 0.01 0.00 59 1014.9
20260509051557 59 0 0.0 0.9 0.00 0.01 0.00 59 1015.3
20260509050050 59 0 0.0 1.7 0.00 0.01 0.00 59 1015.4
20260509044548 59 0 0.0 4.3 0.00 0.01 0.00 55 1015.5
20260509043046 60 0 0.9 4.3 0.00 0.01 0.00 54 1015.4
20260509041546 59 0 0.9 4.3 0.00 0.01 0.00 53 1015.4
20260509040052 58 0 0.0 0.9 0.00 0.01 0.00 55 1015.3
20260509034546 58 0 0.0 0.9 0.00 0.01 0.01 56 1015.4
20260509033059 58 0 0.0 0.9 0.00 0.01 0.01 57 1015.4
20260509031552 58 0 0.0 0.9 0.00 0.01 0.01 58 1015.4
20260509030041 59 0 0.0 0.0 0.00 0.01 0.01 59 1015.6
20260509024544 59 0 0.0 0.9 0.00 0.01 0.01 56 1015.7
20260509023047 59 0 0.0 0.9 0.00 0.01 0.01 54 1015.8
20260509021547 59 0 0.0 0.0 0.00 0.01 0.01 54 1015.8
20260509020046 59 0 0.0 0.9 0.00 0.01 0.01 55 1015.9
20260509014548 60 0 0.0 0.9 0.00 0.01 0.01 55 1015.8
20260509013053 60 0 0.0 0.0 0.00 0.01 0.01 52 1015.7
20260509011549 61 0 0.0 0.0 0.00 0.01 0.01 53 1015.5
20260509010050 61 0 0.0 0.9 0.00 0.01 0.01 48 1015.5
20260509004540 62 0 0.0 0.9 0.00 0.01 0.01 47 1015.5
20260509003046 63 0 0.0 0.9 0.00 0.01 0.01 45 1015.5
20260509001545 64 0 0.0 0.9 0.00 0.01 0.01 43 1014.8
20260509000049 65 0 0.0 0.9 0.00 0.01 0.01 43 1015.0
20260508234543 65 0 0.0 0.9 0.00 0.01 0.01 41 1015.1
20260508233101 66 0 0.0 1.7 0.00 0.01 0.01 38 1015.2
20260508231552 66 0 0.0 4.3 0.00 0.01 0.01 37 1015.3
20260508230058 66 0 0.9 4.3 0.00 0.01 0.01 36 1015.0
20260508224605 67 0 0.0 4.3 0.00 0.01 0.01 36 1015.0
20260508223047 67 271 0.0 1.7 0.00 0.01 0.01 37 1015.0
20260508221549 67 244 0.9 4.3 0.00 0.01 0.01 35 1014.9
20260508220055 68 0 0.0 9.6 0.00 0.01 0.01 37 1014.6
20260508214551 69 265 0.9 4.3 0.00 0.01 0.01 35 1014.8
20260508213049 70 294 0.9 7.0 0.00 0.01 0.01 32 1015.0
20260508211554 69 147 1.7 4.3 0.00 0.01 0.01 31 1014.7
20260508210050 69 221 0.0 7.0 0.00 0.01 0.01 35 1014.9
20260508204551 69 0 0.9 7.0 0.00 0.13 0.01 33 1015.1
20260508203055 69 0 1.7 8.7 0.00 0.13 0.01 33 1015.6
20260508201549 69 186 2.6 7.8 0.00 0.13 0.01 33 1015.7
20260508200103 69 173 1.7 8.7 0.00 0.13 0.01 33 1015.7
20260508194539 70 333 1.7 6.1 0.00 0.18 0.01 33 1015.7
20260508193048 69 0 1.7 6.1 0.00 0.18 0.01 31 1016.0
20260508191552 71 275 0.0 5.2 0.00 0.18 0.01 32 1016.2
20260508190045 68 123 1.7 9.6 0.00 0.18 0.01 31 1016.3
20260508184553 68 150 3.5 7.8 0.00 0.18 0.01 32 1016.6
20260508183050 70 240 0.9 3.5 0.00 0.18 0.01 34 1016.6
20260508181551 67 111 0.9 7.8 0.00 0.18 0.01 32 1016.8
20260508180049 68 121 1.7 6.1 0.00 0.18 0.01 31 1017.0
20260508174603 70 0 0.0 1.7 0.00 0.18 0.01 31 1017.2
20260508173048 68 0 0.0 2.6 0.00 0.18 0.01 33 1017.5
20260508171551 66 0 0.9 4.3 0.00 0.18 0.01 31 1017.6
20260508170055 67 112 0.0 2.6 0.00 0.18 0.01 35 1017.6
20260508164549 65 263 0.0 2.6 0.00 0.18 0.01 37 1017.9
20260508163047 66 0 0.9 2.6 0.00 0.18 0.01 35 1018.3
20260508161549 65 170 0.0 1.7 0.00 0.18 0.01 34 1018.5
20260508160052 65 0 0.9 5.2 0.00 0.18 0.01 41 1018.6
20260508154552 65 101 0.0 3.5 0.00 0.18 0.01 36 1018.8
20260508153046 63 296 0.9 2.6 0.00 0.18 0.01 41 1019.0
20260508151557 64 0 0.9 2.6 0.00 0.18 0.01 41 1019.1
20260508150050 62 0 0.0 6.1 0.00 0.18 0.01 40 1019.1
20260508144551 62 96 0.0 1.7 0.00 0.20 0.01 44 1018.9
20260508143055 61 261 0.9 1.7 0.00 0.20 0.01 46 1018.9